{"data":{"norad_id":62505,"intl_designator":"2025-003U","name":"STARLINK-32725","alt_names":[],"object_type":"PAYLOAD","status":"ACTIVE","operator":null,"country":"US","launch_date":"2025-01-06","launch_site_code":"AFETR","launch_vehicle":null,"mission":null,"orbit_class":"UNKNOWN","rcs_meters":null,"size_class":null,"mass_kg":null,"dimensions":null,"purposes":["comms"],"wikipedia_slug":null,"has_3d_model":false,"image_url":null,"decayed_at":null,"tle_current":{"epoch":"2026-09-21T08:58:21.239616Z","epoch_age_seconds":99068,"freshness":"FRESH","line1":"1 62505U 25003U   26264.37385694  .00013450  00000+0  49718-3 0  9997","line2":"2 62505  43.0011 263.4236 0001276 277.6897  82.3810 15.27594308 96480","mean_motion":15.27594308,"eccentricity":0.0001276,"inclination_deg":43.0011,"raan_deg":263.4236,"arg_perigee_deg":277.6897,"mean_anomaly_deg":82.381,"bstar":0.00049718,"rev_number":9648,"period_min":94.265865777238,"perigee_km":482.13077119569,"apogee_km":483.88173495387,"semimajor_km":6861.1432530748,"source":"CELESTRAK","updated_at":"2026-09-22T09:00:49.619981Z"}}}